Tracking 33873 objects as of 21-Apr-2026
HD Live streaming from Space Station
objects crossing your sky now

CZ-6A DEB

Track CZ-6A DEB now!
10-day predictions


NORAD ID: 55868
Int'l Code: 2022-151ZQ
Perigee: 646.7 km
Apogee: 745.1 km
Inclination: 98.6 °
Period: 98.5 minutes
Semi major axis: 7066 km
RCS: Unknown
Launch date: November 11, 2022
Source: People's Republic of China (PRC)
Launch site: Taiyaun Space Center, China (TSC)

Note: This is SATELLITE DEBRIS
Your satellite tracking list
Your tracking list is empty




NASA's NSSDC Master Catalog

Two Line Element Set (TLE):
1 55868U 22151ZQ  26109.55561352  .00008090  00000-0  15897-2 0  9992
2 55868  98.5892 155.3967 0069620 134.5115 226.1802 14.61368630100408
Source of the keplerian elements: AFSPC